Starlink 32618

operational
NORAD ID: 62045 Int'l Des: 2024-216 Owner: SPXS Country: US Constellation: starlink
LEOCIRCULAR

About Starlink 32618

Description loading...

Live Position

Loading 3D Globe...

Upcoming Passes

Altitude History

Altitude vs Time

uPlot chart will show altitude changes over time

Two-Line Element Set

1 62045U 24216P 25351.43439712 .00022062 00000-0 80823-3 0 9997
2 62045 43.0038 1.0402 0001432 261.4739 98.5950 15.27604761 61299
Epoch: Dec 17, 2025 • Age: 12 hours

Current Status

Altitude 485.3 km
Velocity 7.63 km/s
Sub-Earth Point 35.54°N, 72.83°E
Launch Date Nov 21, 2024
Age 1 years
Type internet

Technical Details

Classification Payload
Mass 730.00 kg
Dry Mass 700.00 kg
Total Mass 730.00 kg
Length 0.30 m
Diameter 4.10 m
Span 29.00 m
Shape Box + pan
Manufacturer SPXS
Bus Type Starlink V2M
Phase Status In Orbit
Owner/State SPXS/US

Large Constellations

Loading constellations...